This demonstration page uses our WeatherBlox Daily Observations layout. Learn more.

Left ArrowRight Arrow

53.62937, 11.41316

Hourly Observations for April 28, 2021

Temp ( °F °C ) Dew Point ( °F °C ) Humidity (%) Winds ( mph kmh ) Pressure ( in mb ) Visibility ( mi km ) Precip ( " mm )
7:50 am 07:50 Mostly Sunny 41 5 30 -1 66 66 E 6 9 29.83 1010 7 11 N/A
8:20 am 08:20 Mostly Sunny 43 6 30 -1 61 61 E 6 9 29.83 1010 7 11 N/A
8:50 am 08:50 Mostly Sunny 45 7 30 -1 57 57 E 7 11 29.83 1010 7 11 N/A
9:20 am 09:20 Mostly Sunny 48 9 30 -1 50 50 E 8 13 29.83 1010 7 11 N/A
9:50 am 09:50 Mostly Sunny 50 10 28 -2 43 43 E 8 13 29.83 1010 7 11 N/A
10:20 am 10:20 Mostly Sunny 52 11 30 -1 44 44 E 9 15 29.83 1010 7 11 N/A
10:50 am 10:50 Mostly Sunny 54 12 28 -2 38 38 E 9 15 29.80 1009 7 11 N/A
11:20 am 11:20 Mostly Sunny 54 12 27 -3 35 35 E 10 17 29.80 1009 7 11 N/A
11:50 am 11:50 Mostly Sunny 55 13 28 -2 36 36 ENE 15 24 29.80 1009 7 11 N/A
12:20 pm 12:20 Mostly Sunny 55 13 27 -3 33 33 ENE 13 20 29.77 1008 7 11 N/A
12:50 pm 12:50 Mostly Sunny 57 14 27 -3 31 31 E 10 17 29.77 1008 7 11 N/A
1:20 pm 13:20 Mostly Sunny 57 14 27 -3 31 31 E 13 20 29.77 1008 7 11 N/A
1:50 pm 13:50 Mostly Sunny 59 15 30 -1 34 34 E 10 17 29.77 1008 7 11 N/A
2:20 pm 14:20 Mostly Sunny 59 15 27 -3 29 29 E 9 15 29.74 1007 7 11 N/A
2:50 pm 14:50 Mostly Sunny 59 15 27 -3 29 29 E 9 15 29.74 1007 7 11 N/A
3:20 pm 15:20 Mostly Sunny 61 16 34 1 36 36 ESE 8 13 29.71 1006 7 11 N/A
3:50 pm 15:50 Mostly Sunny 57 14 36 2 44 44 NNE 10 17 29.71 1006 7 11 N/A
4:20 pm 16:20 Mostly Sunny 59 15 36 2 42 42 NE 15 24 29.71 1006 7 11 N/A
4:50 pm 16:50 Mostly Sunny 57 14 36 2 44 44 NNE 14 22 29.71 1006 7 11 N/A
5:20 pm 17:20 Mostly Sunny 57 14 36 2 44 44 NE 14 22 29.68 1005 7 11 N/A
5:50 pm 17:50 Mostly Sunny 57 14 36 2 44 44 NNE 12 19 29.68 1005 7 11 N/A
6:20 pm 18:20 Mostly Sunny 55 13 37 3 51 51 NNE 12 19 29.68 1005 7 11 N/A
6:50 pm 18:50 Mostly Sunny 55 13 37 3 51 51 NE 10 17 29.68 1005 7 11 N/A
7:20 pm 19:20 Mostly Sunny 54 12 37 3 54 54 NNE 8 13 29.68 1005 7 11 N/A
7:50 pm 19:50 Mostly Sunny 52 11 39 4 62 62 N 6 9 29.68 1005 7 11 N/A
8:20 pm 20:20 Mostly Sunny 52 11 39 4 62 62 NE 5 7 29.68 1005 7 11 N/A
8:50 pm 20:50 Mostly Clear 52 11 39 4 62 62 NE 5 7 29.68 1005 7 11 N/A
9:20 pm 21:20 Mostly Clear 52 11 39 4 62 62 ENE 5 7 29.68 1005 7 11 N/A
9:50 pm 21:50 Mostly Clear 52 11 37 3 58 58 ENE 6 9 29.68 1005 7 11 N/A

Powered by AerisWeather